• In Moldova, Republic
  • List of Countries
  • For 7 days
  • Water Temperature
  • Satellite Maps
  • Weather Map
  • Weather Widgets
  • user-avatar
    Login

    Hourly Weather Ischgl

    Today, 25 March, Saturday

    Time Temperature Precipitation Wind Pressure Humidity
    00:00 -4°C° 0 mm 1 mps 575 mmHg 93%
    01:00 -6°C° 0 mm 2 mps 575 mmHg 93%
    02:00 -6°C° 0 mm 2 mps 574 mmHg 93%
    03:00 -6°C° 0 mm 2 mps 574 mmHg 93%
    04:00 -6°C° 0 mm 2 mps 574 mmHg 93%
    05:00 -6°C° 0 mm 2 mps 574 mmHg 93%
    06:00 -6°C° 0 mm 2 mps 574 mmHg 93%
    07:00 -6°C° 0 mm 2 mps 574 mmHg 92%
    08:00 -3°C° 0 mm 2 mps 575 mmHg 90%
    09:00 -1°C° 0 mm 2 mps 576 mmHg 88%
    10:00 +2°C° 0 mm 2 mps 577 mmHg 86%
    11:00 +3°C° 0 mm 2 mps 577 mmHg 84%
    12:00 +3°C° 0 mm 2 mps 577 mmHg 82%
    13:00 +4°C° 0 mm 2 mps 576 mmHg 80%
    14:00 +4°C° 0 mm 2 mps 576 mmHg 81%
    15:00 +3°C° 0 mm 2 mps 576 mmHg 82%
    16:00 +3°C° 0 mm 2 mps 575 mmHg 83%
    17:00 +1°C° 0 mm 2 mps 574 mmHg 87%
    18:00 -1°C° 0 mm 2 mps 573 mmHg 91%
    19:00 -3°C° 0 mm 2 mps 572 mmHg 95%
    20:00 -4°C° 0 mm 2 mps 572 mmHg 94%
    21:00 -4°C° 0 mm 2 mps 572 mmHg 94%
    22:00 -5°C° 0 mm 2 mps 572 mmHg 93%
    23:00 -5°C° 0 mm 2 mps 572 mmHg 93%

    Tomorrow, 26 March, Sunday

    Time Temperature Precipitation Wind Pressure Humidity
    00:00 -5°C° 0 mm 2 mps 572 mmHg 93%
    01:00 -6°C° 0 mm 2 mps 571 mmHg 93%
    02:00 -4°C° 0 mm 1 mps 571 mmHg 94%
    03:00 -6°C° 0 mm 1 mps 570 mmHg 94%
    04:00 -7°C° 0 mm 1 mps 570 mmHg 94%
    05:00 -7°C° 0 mm 1 mps 570 mmHg 93%
    06:00 -7°C° 0 mm 1 mps 570 mmHg 91%
    07:00 -7°C° 0 mm 0 mps 570 mmHg 90%
    08:00 -4°C° 0 mm 1 mps 571 mmHg 88%
    09:00 -1°C° 0 mm 1 mps 573 mmHg 86%
    10:00 +1°C° 0 mm 1 mps 574 mmHg 84%
    11:00 +2°C° 0.1 mm 1 mps 574 mmHg 84%
    12:00 +1°C° 0.1 mm 2 mps 574 mmHg 85%
    13:00 +1°C° 0.1 mm 2 mps 574 mmHg 85%
    14:00 +1°C° 0.1 mm 2 mps 574 mmHg 86%
    15:00 +1°C° 0.1 mm 2 mps 574 mmHg 86%
    16:00 +1°C° 0.1 mm 2 mps 574 mmHg 87%
    17:00 -1°C° 0.1 mm 2 mps 573 mmHg 90%
    18:00 -1°C° 0.1 mm 1 mps 573 mmHg 94%
    19:00 -2°C° 0.1 mm 1 mps 573 mmHg 97%
    20:00 -3°C° 0 mm 1 mps 573 mmHg 97%
    21:00 -4°C° 0 mm 1 mps 573 mmHg 97%
    22:00 -6°C° 0 mm 1 mps 573 mmHg 97%
    23:00 -6°C° 0 mm 1 mps 573 mmHg 96%

    Day after tomorrow, 27 March, Monday

    Time Temperature Precipitation Wind Pressure Humidity
    00:00 -6°C° 0 mm 1 mps 573 mmHg 96%
    01:00 -7°C° 0 mm 1 mps 573 mmHg 95%
    02:00 -6°C° 0 mm 1 mps 573 mmHg 94%
    03:00 -7°C° 0 mm 2 mps 573 mmHg 93%
    04:00 -6°C° 0 mm 2 mps 574 mmHg 92%
    05:00 -6°C° 0 mm 2 mps 574 mmHg 92%
    06:00 -6°C° 0 mm 2 mps 574 mmHg 91%
    07:00 -5°C° 0 mm 2 mps 575 mmHg 90%
    08:00 -1°C° 0 mm 1 mps 575 mmHg 84%
    09:00 +1°C° 0 mm 1 mps 576 mmHg 78%
    10:00 +3°C° 0 mm 1 mps 577 mmHg 72%
    11:00 +4°C° 0 mm 1 mps 578 mmHg 70%
    12:00 +5°C° 0 mm 1 mps 578 mmHg 67%
    13:00 +6°C° 0 mm 1 mps 578 mmHg 65%
    14:00 +6°C° 0 mm 1 mps 578 mmHg 67%
    15:00 +5°C° 0 mm 1 mps 578 mmHg 70%
    16:00 +5°C° 0 mm 1 mps 578 mmHg 73%
    17:00 +2°C° 0 mm 1 mps 576 mmHg 81%
    18:00 -1°C° 0 mm 1 mps 575 mmHg 89%
    19:00 -5°C° 0 mm 0 mps 573 mmHg 97%
    20:00 -4°C° 0 mm 1 mps 574 mmHg 96%
    21:00 -3°C° 0 mm 1 mps 575 mmHg 96%
    22:00 -3°C° 0 mm 1 mps 575 mmHg 95%
    23:00 -3°C° 0 mm 1 mps 576 mmHg 95%

    28 March, Tuesday

    Time Temperature Precipitation Wind Pressure Humidity
    00:00 -2°C° 0 mm 1 mps 576 mmHg 94%
    01:00 -2°C° 0 mm 1 mps 576 mmHg 94%
    02:00 -3°C° 0 mm 1 mps 576 mmHg 94%
    03:00 -3°C° 0 mm 1 mps 576 mmHg 93%
    04:00 -3°C° 0 mm 1 mps 576 mmHg 93%
    05:00 -3°C° 0 mm 1 mps 576 mmHg 92%
    06:00 -3°C° 0 mm 1 mps 576 mmHg 91%
    07:00 -3°C° 0 mm 1 mps 576 mmHg 90%
    08:00 0°C° 0 mm 1 mps 577 mmHg 84%
    09:00 +2°C° 0 mm 1 mps 579 mmHg 77%
    10:00 +4°C° 0 mm 0 mps 580 mmHg 70%
    11:00 +5°C° 0 mm 1 mps 580 mmHg 69%
    12:00 +6°C° 0 mm 1 mps 580 mmHg 67%
    13:00 +6°C° 0 mm 1 mps 581 mmHg 65%
    14:00 +6°C° 0 mm 1 mps 580 mmHg 68%
    15:00 +6°C° 0 mm 1 mps 580 mmHg 71%
    16:00 +5°C° 0 mm 1 mps 580 mmHg 74%
    17:00 +3°C° 0 mm 1 mps 578 mmHg 81%
    18:00 0°C° 0 mm 1 mps 577 mmHg 88%
    19:00 -3°C° 0 mm 1 mps 576 mmHg 95%
    20:00 -4°C° 0 mm 0 mps 576 mmHg 95%
    21:00 -4°C° 0 mm 0 mps 576 mmHg 95%
    22:00 -5°C° 0 mm 0 mps 576 mmHg 96%
    23:00 -5°C° 0 mm 0 mps 576 mmHg 96%

    29 March, Wednesday

    Time Temperature Precipitation Wind Pressure Humidity
    00:00 -6°C° 0 mm 0 mps 575 mmHg 95%
    01:00 -6°C° 0 mm 0 mps 575 mmHg 95%
    02:00 -6°C° 0 mm 0 mps 575 mmHg 95%
    03:00 -7°C° 0 mm 0 mps 575 mmHg 94%
    04:00 -7°C° 0 mm 0 mps 575 mmHg 94%
    05:00 -6°C° 0 mm 0 mps 575 mmHg 92%
    06:00 -5°C° 0 mm 0 mps 576 mmHg 90%
    07:00 -4°C° 0 mm 0 mps 577 mmHg 88%
    08:00 -1°C° 0 mm 0 mps 578 mmHg 79%
    09:00 +2°C° 0 mm 0 mps 580 mmHg 70%
    10:00 +5°C° 0 mm 0 mps 581 mmHg 62%
    11:00 +5°C° 0 mm 0 mps 581 mmHg 59%
    12:00 +7°C° 0 mm 1 mps 582 mmHg 57%
    13:00 +8°C° 0 mm 1 mps 582 mmHg 54%
    14:00 +7°C° 0.1 mm 1 mps 581 mmHg 57%
    15:00 +7°C° 0.1 mm 1 mps 581 mmHg 61%
    16:00 +7°C° 0.1 mm 1 mps 580 mmHg 64%
    17:00 +3°C° 0.1 mm 1 mps 579 mmHg 73%
    18:00 0°C° 0.1 mm 1 mps 577 mmHg 83%
    19:00 -3°C° 0.1 mm 1 mps 575 mmHg 92%
    20:00 -3°C° 0 mm 1 mps 576 mmHg 90%
    21:00 -3°C° 0 mm 1 mps 576 mmHg 88%
    22:00 -3°C° 0 mm 1 mps 576 mmHg 86%
    23:00 -3°C° 0 mm 1 mps 576 mmHg 84%

    30 March, Thursday

    Time Temperature Precipitation Wind Pressure Humidity
    00:00 -3°C° 0 mm 1 mps 576 mmHg 82%
    01:00 -3°C° 0 mm 1 mps 576 mmHg 80%
    02:00 -4°C° 0 mm 1 mps 576 mmHg 78%
    03:00 -4°C° 0 mm 1 mps 575 mmHg 77%
    04:00 -4°C° 0 mm 1 mps 575 mmHg 76%
    05:00 -4°C° 0 mm 1 mps 576 mmHg 73%
    06:00 -3°C° 0 mm 1 mps 576 mmHg 71%
    07:00 -5°C° 0 mm 2 mps 576 mmHg 69%
    08:00 0°C° 0 mm 1 mps 578 mmHg 62%
    09:00 +3°C° 0 mm 1 mps 579 mmHg 56%
    10:00 +6°C° 0 mm 1 mps 580 mmHg 49%
    11:00 +7°C° 0 mm 1 mps 580 mmHg 47%
    12:00 +8°C° 0 mm 1 mps 580 mmHg 45%
    13:00 +7°C° 0 mm 2 mps 580 mmHg 43%
    14:00 +7°C° 0 mm 2 mps 580 mmHg 46%
    15:00 +8°C° 0 mm 1 mps 579 mmHg 49%
    16:00 +7°C° 0 mm 1 mps 579 mmHg 52%
    17:00 +4°C° 0 mm 1 mps 578 mmHg 63%
    18:00 +1°C° 0 mm 1 mps 576 mmHg 74%
    19:00 -2°C° 0 mm 1 mps 574 mmHg 85%
    20:00 -2°C° 0 mm 1 mps 575 mmHg 85%
    21:00 -5°C° 0 mm 2 mps 575 mmHg 85%
    22:00 -5°C° 0 mm 2 mps 575 mmHg 85%
    23:00 -5°C° 0 mm 2 mps 574 mmHg 83%
    Show more